1483646400.85,28220,6.13,71868.0,-27.17,-31.33,-31.73,0,*6D
1483646402.12,28221,6.13,71864.3,-27.21,-31.91,-31.85,0,*68
1483646403.35,28222,6.13,71866.3,-27.17,-31.29,-32.23,0,*62
1483646404.59,28223,6.13,71876.5,-27.17,-33.43,-35.13,0,*69
1483646405.84,28224,6.13,71862.3,-27.17,-35.13,-34.95,0,*62
1483646407.12,28225,6.13,71772.8,-27.17,-33.31,-34.95,0,*65
1483646408.39,28226,6.13,71850.3,-27.17,-35.35,-37.63,0,*6E
1483646409.67,28227,6.13,71834.5,-27.17,-37.81,-39.97,0,*67
1483646410.93,28228,6.13,71866.5,-27.17,-41.35,-42.75,0,*66
1483646412.17,28229,6.13,71856.5,-27.21,-40.73,-41.93,0,*6A
1483646413.39,28230,6.13,71856.0,-27.17,-41.11,-42.25,0,*6C
1483646414.63,28231,6.13,71874.0,-27.21,-41.03,-42.45,0,*6D
1483646415.85,28232,6.13,71878.8,-27.17,-40.47,-41.49,0,*65
1483646417.12,28233,6.13,71876.3,-27.21,-37.63,-38.67,0,*65
1483646418.37,28234,6.13,71900.0,-27.17,-37.15,-38.49,0,*6A
1483646419.62,28235,6.13,71906.0,-27.21,-37.93,-39.09,0,*65
1483646420.85,28236,6.13,71876.5,-27.17,-38.35,-39.09,0,*60
1483646422.07,28237,6.13,71910.8,-27.21,-37.03,-38.35,0,*60
1483646423.3,28238,6.13,71898.8,-27.17,-39.65,-41.73,0,*68
1483646424.57,28239,6.13,71910.8,-27.17,-39.29,-41.23,0,*64
1483646425.83,28240,6.13,71924.0,-27.21,-39.91,-41.55,0,*6D
1483646427.05,28241,6.13,71934.0,-27.17,-41.29,-43.15,0,*63
1483646428.27,28242,6.13,71938.3,-27.17,-41.73,-43.49,0,*66
1483646429.53,28243,6.13,71930.0,-27.21,-41.35,-42.75,0,*6E
1483646430.78,28244,6.13,71898.5,-27.17,-41.35,-42.89,0,*6F
1483646432.0,28245,6.13,71900.3,-27.21,-41.11,-42.25,0,*6B
1483646433.25,28246,6.13,71888.0,-27.17,-41.55,-42.75,0,*68
1483646434.53,28247,6.13,71876.8,-27.23,-42.19,-43.61,0,*61
1483646435.81,28248,6.06,71862.0,-27.21,-41.93,-43.55,0,*6A
1483646437.06,28249,6.13,71884.3,-27.21,-41.87,-43.55,0,*6E
1483646438.29,28250,6.13,71882.0,-27.21,-42.13,-43.35,0,*6E
1483646439.58,28251,6.13,71882.5,-27.23,-42.57,-44.01,0,*6D
1483646440.85,28252,6.13,71878.3,-27.25,-42.83,-44.21,0,*63
1483646442.08,28253,6.13,71884.5,-27.25,-42.37,-43.61,0,*6E
1483646443.35,28254,6.13,71900.8,-27.23,-42.63,-44.01,0,*6F
1483646444.65,28255,6.13,71896.0,-27.23,-42.31,-43.81,0,*66
1483646445.91,28256,6.13,71898.0,-27.25,-42.57,-44.01,0,*6C
1483646447.15,28257,6.13,71900.0,-27.25,-42.75,-43.81,0,*62
1483646448.4,28258,6.13,71890.5,-27.25,-41.93,-43.01,0,*6E
1483646449.62,28259,6.13,71898.8,-27.25,-41.99,-43.41,0,*61
1483646450.86,28260,6.13,71888.5,-27.25,-42.57,-43.95,0,*63
1483646452.11,28261,6.13,71890.8,-27.27,-42.89,-44.07,0,*6F
1483646453.37,28262,6.13,71902.3,-27.27,-43.01,-44.27,0,*6F
1483646454.64,28263,6.13,71906.5,-27.27,-41.99,-43.09,0,*66
1483646455.86,28264,6.13,71908.3,-27.29,-41.41,-42.89,0,*63
1483646457.12,28265,6.13,71914.5,-27.29,-42.19,-43.61,0,*6B
1483646458.39,28266,6.13,71920.8,-27.29,-42.05,-43.81,0,*6B
1483646459.62,28267,6.13,71924.8,-27.29,-41.87,-43.41,0,*6F
1483646460.86,28268,6.13,71924.8,-27.29,-41.49,-43.29,0,*6C
1483646462.14,28269,6.13,71930.5,-27.29,-41.23,-42.83,0,*60
1483646463.43,28270,6.13,71936.8,-27.27,-40.29,-42.57,0,*64
1483646464.65,28271,6.13,71922.3,-27.29,-41.49,-43.41,0,*6A
1483646465.91,28272,6.13,71918.0,-27.29,-41.67,-43.41,0,*65
1483646467.18,28273,6.13,71910.3,-27.29,-41.23,-43.29,0,*6A
1483646468.44,28274,6.13,71902.3,-27.29,-41.67,-43.41,0,*63
1483646469.66,28275,6.13,71900.0,-27.29,-41.99,-43.49,0,*6B
1483646470.89,28276,6.13,71896.0,-27.29,-41.99,-43.41,0,*60
1483646472.19,28277,6.13,71902.8,-27.31,-42.05,-43.09,0,*62
1483646473.47,28278,6.13,71908.0,-27.31,-42.19,-43.61,0,*6E
1483646474.74,28279,6.13,71908.3,-27.33,-42.69,-44.21,0,*69
1483646475.98,28280,6.13,71890.5,-27.31,-42.37,-43.87,0,*6D
1483646477.23,28281,6.13,71894.0,-27.31,-41.99,-43.61,0,*63
1483646478.48,28282,6.13,71902.8,-27.33,-41.67,-43.15,0,*60
1483646479.78,28283,6.13,71890.8,-27.31,-41.23,-42.19,0,*6E
1483646481.06,28284,6.13,71890.0,-27.31,-39.09,-40.29,0,*6F
1483646482.33,28285,6.13,71900.0,-27.33,-39.53,-41.55,0,*69
1483646483.58,28286,6.13,71892.8,-27.33,-41.67,-43.49,0,*6D
1483646484.83,28287,6.13,71902.5,-27.33,-41.73,-43.67,0,*65
1483646486.08,28288,6.13,71910.8,-27.33,-41.87,-43.55,0,*60
1483646487.3,28289,6.13,71916.0,-27.33,-42.51,-44.07,0,*69
1483646488.56,28290,6.13,71922.3,-27.33,-42.69,-44.13,0,*6F
1483646489.83,28291,6.13,71934.0,-27.33,-42.69,-44.13,0,*6E
1483646491.05,28292,6.13,71902.8,-27.33,-42.75,-44.41,0,*67
1483646492.32,28293,6.13,71896.5,-27.33,-42.69,-44.13,0,*6C
1483646493.6,28294,6.13,71902.0,-27.35,-42.13,-43.55,0,*65
1483646494.9,28295,6.13,71910.5,-27.35,-41.55,-42.95,0,*68
1483646496.15,28296,6.13,71904.3,-27.35,-41.87,-43.49,0,*64
1483646497.45,28297,6.13,71908.8,-27.35,-41.93,-43.67,0,*6C
1483646498.69,28298,6.13,71916.5,-27.35,-42.63,-44.07,0,*6E
1483646499.96,28299,6.13,71918.0,-27.37,-42.57,-44.13,0,*6F
1483646501.21,28300,6.13,71920.5,-27.35,-41.49,-43.15,0,*61
1483646502.48,28301,6.13,71914.5,-27.37,-42.19,-43.81,0,*69
1483646503.75,28302,6.13,71900.0,-27.35,-42.31,-43.87,0,*64
1483646505.02,28303,6.13,71898.8,-27.35,-42.31,-43.87,0,*65
1483646506.28,28304,6.13,71890.5,-27.35,-42.25,-43.95,0,*64
1483646507.53,28305,6.13,71898.3,-27.37,-42.19,-43.75,0,*66
1483646508.78,28306,6.13,71888.8,-27.35,-41.03,-42.51,0,*68
1483646510.08,28307,6.13,71894.3,-27.35,-41.67,-43.21,0,*6D
1483646511.36,28308,6.13,71892.0,-27.37,-41.93,-43.55,0,*68
1483646512.66,28309,6.13,71894.0,-27.35,-41.67,-43.29,0,*6B
1483646513.91,28310,6.13,71888.5,-27.35,-42.25,-43.75,0,*6F
1483646515.18,28311,6.13,71884.0,-27.35,-42.25,-43.67,0,*6D
1483646516.41,28312,6.13,71864.8,-27.37,-42.51,-43.95,0,*62
1483646517.68,28313,6.13,71862.5,-27.37,-42.57,-44.01,0,*6F
1483646518.93,28314,6.13,71858.8,-27.37,-42.19,-43.75,0,*66
1483646520.21,28315,6.13,71862.5,-27.37,-42.57,-44.21,0,*6B
1483646521.45,28316,6.13,71866.5,-27.35,-42.63,-44.07,0,*69
1483646522.7,28317,6.13,71868.0,-27.37,-42.31,-43.95,0,*61
1483646523.97,28318,6.13,71858.0,-27.37,-42.57,-44.21,0,*66
1483646525.27,28319,6.13,71872.5,-27.39,-42.69,-44.13,0,*65
1483646526.57,28320,6.13,71882.8,-27.39,-42.69,-44.13,0,*6F
1483646527.84,28321,6.13,71878.5,-27.39,-42.75,-44.13,0,*63
1483646529.09,28322,6.13,71876.3,-27.37,-43.09,-44.61,0,*61
1483646530.34,28323,6.13,71870.5,-27.37,-43.01,-44.47,0,*6C
1483646531.59,28324,6.13,71878.8,-27.39,-43.01,-44.61,0,*61
1483646532.84,28325,6.13,71884.3,-27.37,-42.83,-44.27,0,*67
1483646534.11,28326,6.13,71888.3,-27.39,-42.83,-44.27,0,*6A
1483646535.41,28327,6.13,71888.0,-27.39,-42.95,-44.47,0,*6A
1483646536.67,28328,6.13,71874.3,-27.39,-43.15,-44.47,0,*6C
1483646537.97,28329,6.13,71888.8,-27.39,-42.83,-44.21,0,*63
1483646539.21,28330,6.13,71892.8,-27.43,-42.83,-44.41,0,*60
1483646540.51,28331,6.13,71900.8,-27.39,-42.95,-44.47,0,*6D
1483646541.76,28332,6.13,71902.0,-27.37,-42.83,-44.27,0,*61
1483646543.0,28333,6.13,71892.3,-27.43,-42.75,-44.21,0,*6C
1483646544.3,28334,6.13,71892.5,-27.39,-42.69,-44.21,0,*6B
1483646545.57,28335,6.13,71896.5,-27.43,-42.83,-44.21,0,*63
1483646546.84,28336,6.13,71902.3,-27.39,-42.75,-44.13,0,*65
1483646548.1,28337,6.13,71896.3,-27.39,-42.13,-43.75,0,*63
1483646549.31,28338,6.13,71898.8,-27.43,-42.37,-43.87,0,*6A
1483646550.55,28339,6.13,71904.0,-27.43,-42.25,-43.81,0,*6E
1483646551.82,28340,6.13,71936.3,-27.43,-41.81,-43.29,0,*6F
1483646553.09,28341,6.13,71926.0,-27.43,-41.55,-43.21,0,*6F
1483646554.33,28342,6.13,71922.5,-27.39,-41.11,-43.01,0,*63
1483646555.62,28343,6.13,71918.5,-27.39,-41.35,-42.63,0,*61
1483646556.86,28344,6.13,71898.5,-27.43,-42.37,-44.01,0,*68
1483646558.1,28345,6.13,71888.0,-27.43,-42.89,-44.33,0,*6D
1483646559.35,28346,6.13,71886.8,-27.43,-43.21,-44.67,0,*6C
1483646560.57,28347,6.13,71872.5,-27.43,-43.01,-44.27,0,*6B
1483646561.81,28348,6.13,71874.3,-27.43,-42.83,-44.27,0,*6F
1483646563.03,28349,6.13,71856.3,-27.43,-42.75,-44.07,0,*65
1483646564.27,28350,6.13,71870.8,-27.43,-42.37,-43.81,0,*62
1483646565.51,28351,6.13,71874.0,-27.43,-42.45,-43.87,0,*60
1483646566.77,28352,6.13,71866.3,-27.43,-42.45,-43.81,0,*65
1483646568.01,28353,6.13,71874.3,-27.43,-42.75,-44.21,0,*6A
1483646569.23,28354,6.13,71890.0,-27.43,-42.37,-43.87,0,*60
1483646570.52,28355,6.13,71892.0,-27.39,-41.55,-41.93,0,*6C
1483646571.79,28356,6.13,71886.5,-27.43,-36.79,-37.63,0,*62
1483646573.05,28357,6.13,71862.0,-27.43,-36.13,-37.69,0,*65
1483646574.33,28358,6.13,71876.3,-27.39,-36.31,-37.21,0,*6B
1483646575.59,28359,6.13,71862.8,-27.39,-36.55,-37.87,0,*64
1483646576.88,28360,6.13,71866.8,-27.39,-35.41,-35.41,0,*60
1483646578.13,28361,6.13,71826.5,-27.39,-37.27,-37.45,0,*65
1483646579.4,28362,6.13,71832.3,-27.39,-37.03,-38.79,0,*60
1483646580.66,28363,6.13,71836.3,-27.39,-39.91,-41.17,0,*62
1483646581.89,28364,6.13,71850.3,-27.37,-41.29,-42.75,0,*60
1483646583.13,28365,6.13,71860.3,-27.39,-41.73,-43.01,0,*62
1483646584.4,28366,6.13,71880.3,-27.39,-40.53,-41.93,0,*6B
1483646585.65,28367,6.13,71862.8,-27.39,-40.91,-42.13,0,*6F
1483646586.87,28368,6.13,71862.0,-27.37,-41.49,-42.75,0,*6A
1483646588.11,28369,6.13,71866.8,-27.35,-41.11,-42.13,0,*64
1483646589.36,28370,6.13,71860.5,-27.43,-41.99,-43.67,0,*6F
1483646590.64,28371,6.13,71872.0,-27.39,-42.19,-43.61,0,*6E
1483646591.9,28372,6.13,71896.5,-27.39,-42.13,-43.75,0,*62
1483646593.17,28373,6.06,71886.3,-27.39,-42.13,-44.01,0,*67
1483646594.45,28374,6.13,71886.5,-27.39,-42.51,-44.01,0,*66
1483646595.72,28375,6.13,71888.8,-27.39,-42.51,-44.01,0,*67
1483646597.03,28376,6.13,71870.3,-27.39,-41.81,-43.55,0,*6C
1483646598.3,28377,6.13,71868.3,-27.39,-42.83,-44.41,0,*6E
1483646599.58,28378,6.13,71862.5,-27.39,-42.31,-43.95,0,*66
1483646600.83,28379,6.13,71860.3,-27.39,-42.37,-43.95,0,*61
1483646602.1,28380,6.13,71862.8,-27.39,-42.37,-44.01,0,*6D
1483646603.39,28381,6.13,71876.5,-27.39,-41.93,-43.41,0,*62
1483646604.63,28382,6.13,71874.0,-27.43,-41.23,-42.75,0,*61
1483646605.91,28383,6.13,71884.0,-27.39,-41.11,-42.83,0,*65
1483646607.17,28384,6.13,71872.8,-27.43,-41.81,-43.21,0,*6F
1483646608.41,28385,6.13,71890.8,-27.43,-41.17,-43.29,0,*69
1483646609.64,28386,6.13,71896.0,-27.43,-42.13,-43.95,0,*6A
1483646610.89,28387,6.13,71906.5,-27.39,-42.13,-43.75,0,*68
1483646612.18,28388,6.13,71918.8,-27.39,-42.57,-44.47,0,*61
1483646613.46,28389,6.13,71924.8,-27.39,-42.51,-44.21,0,*66
1483646614.73,28390,6.13,71930.5,-27.39,-42.37,-43.81,0,*63
1483646616.0,28391,6.13,71918.0,-27.39,-42.37,-44.01,0,*6D
1483646617.24,28392,6.13,71922.3,-27.43,-42.75,-44.47,0,*67
1483646618.48,28393,6.13,71922.5,-27.43,-43.01,-44.33,0,*67
1483646619.73,28394,6.13,71908.5,-27.43,-42.19,-43.61,0,*68
1483646621.0,28395,6.13,71898.8,-27.43,-41.23,-42.05,0,*60
1483646622.25,28396,6.13,71888.5,-27.43,-40.41,-41.87,0,*6F
1483646623.51,28397,6.13,71896.3,-27.43,-40.85,-42.57,0,*68
1483646624.78,28398,6.13,71886.0,-27.43,-41.23,-42.57,0,*6A
1483646626.04,28399,6.13,71886.8,-27.43,-40.97,-42.57,0,*65
1483646627.28,28400,6.13,71866.8,-27.43,-40.97,-42.63,0,*65
1483646628.53,28401,6.13,71858.0,-27.43,-41.23,-43.01,0,*6F
1483646629.8,28402,6.13,71862.3,-27.43,-42.05,-43.67,0,*6B
1483646631.06,28403,6.13,71866.3,-27.43,-42.19,-43.81,0,*6F
1483646632.28,28404,6.13,71860.8,-27.43,-42.37,-43.87,0,*62
1483646633.55,28405,6.13,71868.3,-27.45,-42.25,-43.67,0,*68
1483646634.79,28406,6.13,71864.5,-27.47,-42.19,-43.87,0,*68
1483646636.06,28407,6.13,71866.3,-27.47,-42.45,-44.01,0,*69
1483646637.32,28408,6.13,71852.8,-27.45,-42.63,-44.33,0,*61
1483646638.53,28409,6.13,71862.0,-27.43,-42.37,-43.87,0,*6F
1483646639.78,28410,6.13,71862.5,-27.43,-42.37,-44.21,0,*6C
1483646641.02,28411,6.13,71868.0,-27.47,-42.63,-44.21,0,*68
1483646642.31,28412,6.13,71864.3,-27.45,-42.57,-44.21,0,*6E
1483646643.57,28413,6.13,71870.5,-27.45,-42.37,-43.81,0,*64
1483646644.83,28414,6.13,71846.3,-27.45,-42.37,-43.29,0,*61
1483646646.07,28415,6.13,71846.0,-27.47,-41.61,-42.45,0,*69
1483646647.36,28416,6.13,71842.3,-27.45,-40.41,-42.05,0,*6F
1483646648.66,28417,6.13,71856.3,-27.45,-41.35,-43.09,0,*61
1483646649.93,28418,6.13,71860.5,-27.45,-41.81,-43.49,0,*65
1483646651.17,28419,6.13,71880.3,-27.47,-42.05,-43.61,0,*63
1483646652.41,28420,6.13,71906.3,-27.47,-41.81,-43.49,0,*6C
1483646653.68,28421,6.13,71892.5,-27.47,-41.23,-42.83,0,*62
1483646654.95,28422,6.13,71890.0,-27.47,-40.41,-42.19,0,*67
1483646656.16,28423,6.13,71890.5,-27.47,-41.17,-42.89,0,*6D
1483646657.43,28424,6.13,71884.3,-27.45,-41.61,-43.29,0,*62
1483646658.68,28425,6.13,71880.8,-27.47,-41.55,-42.75,0,*6E
1483646659.93,28426,6.13,71880.5,-27.47,-40.79,-42.57,0,*62
1483646661.23,28427,6.13,71890.8,-27.45,-41.35,-43.21,0,*68
1483646662.46,28428,6.13,71888.5,-27.47,-42.45,-43.87,0,*6D
1483646663.73,28429,6.13,71874.5,-27.45,-41.99,-43.67,0,*62
1483646664.95,28430,6.13,71872.5,-27.47,-41.99,-43.61,0,*6E
1483646666.19,28431,6.13,71870.5,-27.45,-42.25,-43.87,0,*61
1483646667.45,28432,6.13,71888.5,-27.45,-42.57,-43.87,0,*67
1483646668.69,28433,6.13,71884.5,-27.45,-41.87,-43.49,0,*6A
1483646669.95,28434,6.13,71882.5,-27.47,-42.57,-44.01,0,*6A
1483646671.22,28435,6.13,71898.3,-27.47,-42.45,-44.01,0,*68
1483646672.46,28436,6.13,71894.5,-27.47,-42.37,-43.81,0,*61
1483646673.69,28437,6.13,71910.0,-27.47,-42.05,-43.87,0,*67
1483646674.93,28438,6.13,71886.8,-27.47,-42.57,-44.07,0,*60
1483646676.19,28439,6.13,71914.0,-27.45,-42.37,-44.01,0,*63
1483646677.43,28440,6.13,71894.5,-27.47,-42.57,-44.07,0,*6F
1483646678.66,28441,6.13,71904.3,-27.47,-42.57,-43.87,0,*61
1483646679.92,28442,6.13,71904.8,-27.47,-42.05,-43.81,0,*63
1483646681.17,28443,6.13,71892.0,-27.47,-42.37,-43.67,0,*6B
1483646682.39,28444,6.13,71892.5,-27.47,-39.47,-40.03,0,*66
1483646683.64,28445,6.13,71880.5,-27.49,-39.09,-40.53,0,*66
1483646684.92,28446,6.13,71902.5,-27.47,-38.49,-40.41,0,*6D
1483646686.15,28447,6.13,71914.5,-27.47,-40.21,-42.89,0,*6B
1483646687.39,28448,6.13,71932.0,-27.47,-41.23,-43.01,0,*66
1483646688.63,28449,6.13,71938.0,-27.47,-40.97,-42.89,0,*68
1483646689.88,28450,6.13,71938.0,-27.47,-41.41,-43.29,0,*61
1483646691.1,28451,6.13,71944.5,-27.47,-41.03,-43.01,0,*6C
1483646692.34,28452,6.13,71944.3,-27.47,-41.67,-43.41,0,*69
1483646693.62,28453,6.13,71950.5,-27.47,-42.19,-43.67,0,*66
1483646694.89,28454,6.13,71938.8,-27.47,-42.19,-43.81,0,*69
1483646696.16,28455,6.13,71942.0,-27.47,-42.19,-43.67,0,*60
1483646697.43,28456,6.13,71950.0,-27.49,-42.45,-44.07,0,*65
1483646698.71,28457,6.13,71948.0,-27.49,-41.87,-42.83,0,*63
1483646699.96,28458,6.13,71948.0,-27.49,-39.91,-41.49,0,*61
1483646701.24,28459,6.13,71946.3,-27.49,-39.71,-41.03,0,*60
1483646702.48,28460,6.13,71936.8,-27.49,-40.03,-41.49,0,*6F
1483646703.76,28461,6.13,71930.5,-27.49,-38.49,-39.85,0,*60
1483646705.04,28462,6.13,71908.0,-27.49,-38.29,-40.53,0,*60
1483646706.31,28463,6.13,71898.5,-27.49,-38.85,-40.29,0,*6A
1483646707.59,28464,6.13,71922.3,-27.49,-37.69,-39.09,0,*6C
1483646708.89,28465,6.13,71924.5,-27.49,-39.03,-40.85,0,*65
1483646710.17,28466,6.13,71928.8,-27.49,-39.29,-40.91,0,*6B
1483646711.44,28467,6.13,71930.8,-27.49,-38.85,-40.21,0,*66
1483646712.68,28468,6.13,71948.5,-27.51,-39.09,-41.03,0,*64
1483646713.95,28469,6.13,71956.0,-27.49,-40.29,-41.41,0,*66
1483646715.2,28470,6.13,71968.5,-27.49,-39.65,-41.73,0,*69
1483646716.47,28471,6.13,71924.8,-27.49,-39.35,-40.09,0,*61
1483646717.74,28472,6.13,71898.0,-27.49,-37.39,-38.17,0,*60
1483646719.02,28473,6.13,71914.3,-27.49,-38.49,-40.73,0,*64
1483646720.27,28474,6.13,71908.8,-27.49,-40.35,-40.91,0,*6B
1483646721.57,28475,6.13,71920.8,-27.49,-38.67,-39.71,0,*62
1483646722.84,28476,6.13,71906.5,-27.49,-39.53,-41.73,0,*6A
1483646724.09,28477,6.13,71914.5,-27.49,-40.91,-42.89,0,*6D
1483646725.36,28478,6.13,71910.8,-27.49,-41.11,-43.09,0,*62
1483646726.61,28479,6.13,71928.0,-27.49,-42.25,-44.07,0,*6E
1483646727.91,28480,6.13,71934.8,-27.49,-41.93,-43.67,0,*67
1483646729.16,28481,6.13,71936.8,-27.49,-42.25,-43.75,0,*6B
1483646730.44,28482,6.13,71932.5,-27.51,-41.23,-42.31,0,*65
1483646731.71,28483,6.13,71946.8,-27.49,-40.21,-41.41,0,*6A
1483646732.95,28484,6.13,71954.8,-27.49,-40.03,-41.29,0,*63
1483646734.23,28485,6.13,71946.8,-27.49,-41.23,-43.15,0,*6C
1483646735.5,28486,6.13,71936.0,-27.49,-41.11,-42.31,0,*69
1483646736.77,28487,6.13,71956.0,-27.49,-41.41,-42.45,0,*6E
1483646738.02,28488,6.13,71942.5,-27.49,-39.91,-41.49,0,*6C
1483646739.3,28489,6.13,71932.5,-27.49,-41.03,-42.69,0,*68
1483646740.54,28490,6.13,71934.0,-27.49,-42.13,-43.87,0,*63
1483646741.76,28491,6.13,71918.0,-27.51,-42.25,-43.87,0,*6E
1483646743.02,28492,6.13,71910.5,-27.49,-40.65,-42.45,0,*6D
1483646744.24,28493,6.13,71914.8,-27.51,-40.03,-41.61,0,*60
1483646745.48,28494,6.13,71928.3,-27.51,-41.41,-42.05,0,*61
1483646746.75,28495,6.13,71930.3,-27.49,-40.21,-41.49,0,*65
1483646748.02,28496,6.13,71936.5,-27.49,-40.47,-42.31,0,*6A
1483646749.28,28497,6.13,71944.5,-27.49,-40.65,-42.83,0,*62
1483646750.55,28498,6.13,71938.5,-27.49,-42.05,-43.75,0,*61
1483646751.82,28499,6.13,71936.5,-27.51,-40.29,-42.31,0,*64
1483646753.05,28500,6.13,71924.3,-27.51,-41.49,-43.15,0,*65
1483646754.35,28501,6.13,71936.8,-27.49,-41.93,-43.67,0,*6F
1483646755.59,28502,6.13,71920.0,-27.49,-42.51,-44.07,0,*60
1483646756.84,28503,6.13,71924.8,-27.51,-42.45,-43.95,0,*61
1483646758.06,28504,6.13,71930.0,-27.51,-42.63,-43.95,0,*62
1483646759.31,28505,6.13,71934.8,-27.51,-42.45,-44.07,0,*6B
1483646760.58,28506,6.13,71934.3,-27.51,-42.69,-44.13,0,*63
1483646761.82,28507,6.13,71922.5,-27.51,-42.69,-44.07,0,*67
1483646763.09,28508,6.13,71922.0,-27.49,-42.83,-43.95,0,*69
1483646764.37,28509,6.13,71918.5,-27.49,-42.45,-43.95,0,*62
1483646765.64,28510,6.13,71918.5,-27.49,-42.31,-43.87,0,*6A
1483646766.89,28511,6.13,71930.8,-27.49,-42.25,-43.75,0,*63
1483646768.16,28512,6.13,71920.8,-27.49,-42.45,-43.87,0,*6B
1483646769.4,28513,6.13,71930.0,-27.51,-42.31,-43.75,0,*6D
1483646770.63,28514,6.13,71924.5,-27.51,-42.51,-43.95,0,*62
1483646771.88,28515,6.13,71946.5,-27.51,-42.25,-43.67,0,*6D
1483646773.13,28516,6.13,71940.0,-27.51,-41.61,-43.29,0,*67
1483646774.38,28517,6.13,71934.0,-27.51,-41.93,-43.49,0,*6D
1483646775.63,28518,6.06,71960.5,-27.51,-42.31,-43.95,0,*68
1483646776.88,28519,6.13,71956.0,-27.51,-41.67,-42.63,0,*61
1483646778.13,28520,6.13,71964.3,-27.49,-40.91,-42.89,0,*6E
1483646779.4,28521,6.13,71962.0,-27.51,-41.93,-43.55,0,*65
1483646780.65,28522,6.13,71966.3,-27.51,-41.61,-43.09,0,*62
1483646781.92,28523,6.13,71950.0,-27.55,-40.79,-42.69,0,*68
1483646783.16,28524,6.13,71946.3,-27.51,-41.61,-43.29,0,*66
1483646784.44,28525,6.13,71946.5,-27.51,-41.67,-43.55,0,*6A
1483646785.69,28526,6.13,71940.3,-27.51,-42.31,-43.87,0,*66
1483646786.94,28527,6.13,71936.3,-27.55,-42.19,-43.61,0,*61
1483646788.16,28528,6.13,71938.5,-27.55,-41.11,-42.51,0,*67
1483646789.39,28529,6.13,71926.0,-27.55,-40.53,-41.93,0,*6C
1483646790.64,28530,6.13,71926.5,-27.55,-39.41,-40.53,0,*64
1483646791.91,28531,6.13,71926.5,-27.55,-38.91,-40.09,0,*66
1483646793.15,28532,6.13,71908.3,-27.55,-38.23,-38.97,0,*64
1483646794.4,28533,6.13,71906.8,-27.55,-38.35,-40.59,0,*6F
1483646795.65,28534,6.13,71886.0,-27.55,-41.35,-43.15,0,*6D
1483646796.9,28535,6.13,71892.3,-27.51,-42.13,-43.67,0,*6A
1483646798.15,28536,6.13,71896.8,-27.51,-41.73,-43.29,0,*66
1483646799.39,28537,6.13,71890.8,-27.51,-41.41,-42.69,0,*63
1483646800.63,28538,6.13,71904.8,-27.55,-41.11,-42.69,0,*6D
1483646801.9,28539,6.13,71904.3,-27.55,-39.97,-41.35,0,*67
1483646803.12,28540,6.13,71920.8,-27.51,-40.65,-42.51,0,*6F
1483646804.37,28541,6.13,71918.8,-27.51,-41.93,-43.75,0,*61
1483646805.64,28542,6.13,71926.5,-27.55,-41.55,-42.95,0,*63
1483646806.87,28543,6.13,71922.5,-27.55,-42.13,-43.61,0,*69
1483646808.12,28544,6.13,71932.0,-27.55,-42.13,-43.55,0,*69
1483646809.37,28545,6.13,71930.5,-27.55,-41.81,-43.35,0,*66
1483646810.65,28546,6.13,71960.0,-27.55,-41.35,-42.95,0,*61
1483646811.89,28547,6.13,71928.3,-27.51,-40.21,-41.11,0,*6F
1483646813.15,28548,6.13,71926.3,-27.51,-38.67,-39.53,0,*64
1483646814.39,28549,6.13,71930.8,-27.51,-38.67,-39.85,0,*6E
1483646815.62,28550,6.13,71930.8,-27.51,-39.47,-40.91,0,*6E
1483646816.92,28551,6.13,71914.5,-27.49,-37.93,-38.11,0,*66
1483646818.14,28552,6.13,71920.0,-27.51,-36.19,-36.97,0,*6F
1483646819.38,28553,6.13,71898.8,-27.51,-34.41,-34.53,0,*6B
1483646820.63,28554,6.13,71890.5,-27.49,-33.67,-34.13,0,*62
1483646821.9,28555,6.13,71896.0,-27.49,-33.31,-33.95,0,*69
1483646823.2,28556,6.13,71892.0,-27.49,-32.75,-33.31,0,*65
1483646824.47,28557,6.13,71906.3,-27.49,-32.85,-34.13,0,*6C
1483646825.74,28558,6.13,71912.5,-27.51,-34.01,-35.65,0,*60
1483646826.99,28559,6.13,71936.3,-27.49,-36.07,-38.17,0,*64
1483646828.26,28560,6.13,71922.0,-27.49,-38.17,-40.21,0,*6B
1483646829.5,28561,6.13,71904.8,-27.49,-38.73,-40.03,0,*68
1483646830.75,28562,6.13,71902.0,-27.49,-38.55,-40.03,0,*6F
1483646831.99,28563,6.13,71902.8,-27.47,-38.67,-40.47,0,*61
1483646833.27,28564,6.13,71904.5,-27.47,-39.79,-41.55,0,*6A
1483646834.54,28565,6.13,71910.0,-27.49,-40.85,-42.51,0,*6F
1483646835.81,28566,6.13,71922.8,-27.49,-40.85,-42.63,0,*6D
1483646837.08,28567,6.13,71928.0,-27.49,-40.29,-41.11,0,*6C
1483646838.35,28568,6.13,71914.5,-27.49,-38.67,-40.03,0,*64
1483646839.65,28569,6.13,71918.8,-27.49,-38.29,-40.29,0,*67
1483646840.92,28570,6.13,71924.3,-27.51,-40.09,-42.05,0,*67
1483646842.18,28571,6.13,71924.3,-27.47,-40.97,-42.45,0,*62
1483646843.4,28572,6.13,71930.5,-27.47,-41.17,-42.63,0,*6C
1483646844.67,28573,6.13,71936.8,-27.47,-41.81,-43.29,0,*6D
1483646845.91,28574,6.13,71926.8,-27.47,-42.05,-43.41,0,*6B
1483646847.19,28575,6.13,71936.0,-27.49,-42.13,-43.55,0,*66
1483646848.44,28576,6.13,71944.3,-27.49,-40.91,-40.65,0,*6D
1483646849.7,28577,6.13,71904.8,-27.49,-39.47,-41.03,0,*68
1483646850.97,28578,6.13,71936.3,-27.49,-39.85,-42.05,0,*6C
1483646852.25,28579,6.13,71954.5,-27.49,-41.23,-42.51,0,*6F
1483646853.5,28580,6.13,71956.8,-27.49,-39.85,-41.41,0,*68
1483646854.76,28581,6.13,71950.5,-27.49,-39.65,-41.03,0,*61
1483646856.01,28582,6.13,71954.8,-27.49,-41.11,-42.63,0,*6B
1483646857.25,28583,6.13,71928.5,-27.47,-40.29,-41.41,0,*6D
1483646858.5,28584,6.13,71942.8,-27.49,-39.65,-41.29,0,*6C
1483646859.74,28585,6.13,71928.0,-27.49,-40.65,-42.25,0,*6C
1483646860.99,28586,6.13,71928.0,-27.49,-41.73,-43.35,0,*69
1483646862.24,28587,6.13,71938.5,-27.51,-42.13,-43.55,0,*62
1483646863.52,28588,6.13,71946.0,-27.49,-42.25,-43.67,0,*60
1483646864.77,28589,6.13,71942.5,-27.49,-42.13,-43.35,0,*63
1483646866.05,28590,6.13,71946.3,-27.49,-41.23,-42.89,0,*6D
1483646867.32,28591,6.13,71946.5,-27.51,-41.93,-43.55,0,*6E
1483646868.55,28592,6.13,71950.5,-27.51,-42.13,-43.49,0,*6B
1483646869.79,28593,6.13,71938.3,-27.51,-41.49,-42.83,0,*61
1483646871.01,28594,6.13,71938.0,-27.51,-41.11,-42.63,0,*65
1483646872.25,28595,6.13,71932.5,-27.51,-41.29,-42.69,0,*65
1483646873.47,28596,6.13,71938.5,-27.51,-41.41,-42.89,0,*66
1483646874.72,28597,6.13,71940.3,-27.51,-41.73,-43.29,0,*6D
1483646875.96,28598,6.13,71944.5,-27.51,-41.61,-43.29,0,*61
1483646877.21,28599,6.13,71948.8,-27.51,-41.23,-43.15,0,*69
1483646878.44,28600,6.13,71948.0,-27.51,-42.13,-43.75,0,*6C
1483646879.68,28601,6.13,71952.5,-27.51,-42.45,-43.87,0,*63
1483646880.93,28602,6.13,71958.8,-27.55,-41.55,-42.75,0,*6A
1483646882.15,28603,6.13,71946.0,-27.55,-41.99,-43.41,0,*6D
1483646883.37,28604,6.13,71944.0,-27.55,-41.99,-43.75,0,*6D
1483646884.62,28605,6.13,71928.3,-27.55,-42.31,-43.75,0,*6D
1483646885.87,28606,6.13,71932.0,-27.55,-42.19,-43.61,0,*61
1483646887.12,28607,6.13,71930.0,-27.55,-42.19,-43.75,0,*65
1483646888.37,28608,6.13,71926.5,-27.55,-42.31,-43.75,0,*60
1483646889.62,28609,6.13,71936.5,-27.55,-41.67,-43.01,0,*62
1483646890.9,28610,6.13,71932.5,-27.55,-40.41,-41.67,0,*6D
1483646892.14,28611,6.13,71930.8,-27.55,-40.73,-42.69,0,*60
1483646893.38,28612,6.13,71936.5,-27.55,-40.59,-42.51,0,*60
1483646894.6,28613,6.13,71926.8,-27.55,-41.29,-43.15,0,*66
1483646895.82,28614,6.13,71926.5,-27.55,-41.11,-42.75,0,*6D
1483646897.07,28615,6.13,71920.8,-27.55,-41.99,-43.55,0,*6F
1483646898.31,28616,6.13,71926.8,-27.55,-40.91,-42.69,0,*6B
1483646899.54,28617,6.13,71920.0,-27.55,-42.13,-43.75,0,*6E
1483646900.79,28618,6.13,71930.5,-27.55,-42.19,-43.61,0,*6E
1483646902.06,28619,6.13,71924.3,-27.55,-42.31,-43.81,0,*6B